COSMOS 252 DEB, 3557

Orbit data source: Space-Track

COSMOS 252 DEB, 3557 is space debris in LEO originally from a launch on Fri, 01 Nov 1968 UTC launched from the Tyuratam Missile And Space Complex (TTMTR). Debris objects in space refer to the collection of defunct objects orbiting the Earth. Examples of debris include non-operational satellites, rocket bodies, and fragments generated from explosions, collisions, or faulty payload assembly.

Loading next visibility...
Identifier
3557, 1968-097K
Orbit
LEO
Country
Flag of CISCIS
Related business
Manufacturer
Unknown
Mission
Spacecraft
Bus & Motor
Unknown
Mass
Unknown
Launch date (UTC)
1968-11-01 (58 years ago)
Launch vehicle
Unknown
Launch site
Tyuratam Missile And Space Complex (TTMTR)
Object type
Payload
Rocket body
Debris
Shape & HBR
Unknown shape, 0.2 m
Radar Cross Section
Medium (>0.1 m² and <1 m²)

Expand to show TLE details & history
Last TLE update: 1 week ago

TLE from 1 week ago
0 COSMOS 252 DEB
1  3557U 68097K   26154.49177345  .00000431  00000-0  20154-3 0  9991
2  3557  62.3178 296.7987 0813491 247.3569 103.9480 13.24357630752394
Epoch: 2026-06-03T11:48Z
TLE epoch observation values (Epoch: 2026-06-03T11:48:09.226Z)
Latitude
0.00005°
Longitude
-132.18934°
Altitude
1,363.262 km
Speed
7.085 km/s
True Right ascension
19h 47m 11s
True Declination
0° 00' 00"
Sunlit
Object was in full shadow at epoch
Visualization orbit readout
Latitude
Unknown
Longitude
Unknown
Altitude
Unknown
Speed
Unknown
Apparent Right ascension
Unknown
Apparent Declination
Unknown
Sunlit
N/A
Visualization observer readout
Local Sidereal Time
13:28:44
Azimuth
Unknown
Elevation
Unknown
Doppler factor
Unknown
Orbital elements
Apogee altitude
1,780.884 km
Perigee altitude
553.29 km
Semi-major axis
7,545.224 km
Eccentricity
0.08135
Inclination
62.3178°
RAAN
296.7987°
Arg. of periapsis
247.3569°
True anomaly
112.74386°
Mean anomaly
103.948°
Eccentric anomaly
108.37141°
Mean motion
3.31158 °/min
Orbital period
108.71 mins
BSTAR
0.00020154
Loading maneuver chart data...
Computing Atmospheric mass density...
Loading historical data...
Loading historical data...
Loading historical data...
Loading historical data...
Loading historical data...
Loading historical data...
Loading historical data...

Documentation

Showing up to 5 results
|